Overview Statistics Trail Chart Weather Telemetry Raw packets
 

This is the latest recevied weather packets stored in our database for station/object K5MGY. If no packets are shown the sender has not sent any weather packets the latest 10 day(s).

<< 11 12 13 14 15 16 17 >>
Time Temp. Humidity Pressure Rain* Wind** Luminosity Snow
1788533849 28.89° C 75% 1038.9 hPa 0 mm - 326 W/m² -
1788533545 28.89° C 75% 1038.8 hPa 0 mm - 107 W/m² -
1788533240 28.89° C 75% 1038.8 hPa 0 mm - 100 W/m² -
1788532935 29.44° C 75% 1039 hPa 0 mm - 139 W/m² -
1788532631 29.44° C 74% 1038.9 hPa 0 mm - 89 W/m² -
1788532328 29.44° C 74% 1038.9 hPa 0 mm - 259 W/m² -
1788532024 29.44° C 75% 1038.9 hPa 0 mm - 151 W/m² -
1788531719 29.44° C 75% 1038.9 hPa 0 mm - 246 W/m² -
1788531413 28.89° C 77% 1039.1 hPa 0 mm - 133 W/m² -
1788531109 28.33° C 79% 1038.8 hPa 0 mm - 220 W/m² -
1788530805 27.78° C 82% 1039.1 hPa 0 mm - 183 W/m² -
1788530505 27.22° C 83% 1038.8 hPa 0 mm - 82 W/m² -
1788530204 27.22° C 83% 1038.9 hPa 0 mm - 76 W/m² -
1788529900 26.67° C 84% 1039 hPa 0 mm - 70 W/m² -
1788529596 26.67° C 85% 1038.9 hPa 0 mm - 54 W/m² -
1788529294 26.67° C 85% 1038.7 hPa 0 mm - 49 W/m² -
1788528990 26.67° C 86% 1038.8 hPa 0 mm - 55 W/m² -
1788528686 26.11° C 86% 1038.6 hPa 0 mm - 46 W/m² -
1788528386 26.11° C 87% 1038.5 hPa 0 mm - 36 W/m² -
1788528080 26.11° C 87% 1038.4 hPa 0 mm - 36 W/m² -
1788527775 26.11° C 87% 1038.5 hPa 0 mm - 38 W/m² -
1788527471 26.11° C 87% 1038.4 hPa 0 mm - 40 W/m² -
1788527169 26.11° C 87% 1038.6 hPa 0 mm - 37 W/m² -
1788526864 26.11° C 87% 1038.5 hPa 0 mm - 32 W/m² -
1788526561 26.11° C 87% 1038.3 hPa 0 mm - 23 W/m² -

* Rain latest hour (hover to see other rain measurements)
** Current wind speed in m/s (hover to see current wind gust speed)